Time,TemperatureF,DewpointF,PressureIn,WindDirection,WindDirectionDegrees,WindSpeedMPH,WindSpeedGustMPH,Humidity,HourlyPrecipIn,Conditions,Clouds,dailyrainin,SoftwareType,DateUTC
2013-10-31 00:01:00,51.8,51.3,29.71,NE,45,0.0,2.9,98,0.00,,,0.00,VWS V14.01,2013-10-31 05:01:00,
2013-10-31 00:06:00,51.8,51.3,29.71,East,90,0.0,1.3,98,0.00,,,0.00,VWS V14.01,2013-10-31 05:06:00,
2013-10-31 00:11:00,51.8,51.3,29.71,East,90,0.0,2.0,98,0.00,,,0.00,VWS V14.01,2013-10-31 05:11:00,
2013-10-31 00:16:00,51.8,51.3,29.71,ESE,112,0.0,3.1,98,0.00,,,0.00,VWS V14.01,2013-10-31 05:16:00,
2013-10-31 00:21:00,51.8,51.3,29.71,ESE,112,0.0,3.1,98,0.00,,,0.00,VWS V14.01,2013-10-31 05:21:00,
2013-10-31 00:26:00,51.8,51.3,29.71,ESE,112,0.0,0.0,98,0.00,,,0.00,VWS V14.01,2013-10-31 05:26:00,
2013-10-31 00:31:00,51.8,51.3,29.71,NNE,22,0.0,0.9,98,0.00,,,0.00,VWS V14.01,2013-10-31 05:31:00,
2013-10-31 00:36:00,51.8,51.3,29.71,ENE,68,0.0,1.3,98,0.00,,,0.00,VWS V14.01,2013-10-31 05:36:00,
2013-10-31 00:42:00,51.8,51.3,29.68,SSW,202,0.9,0.9,98,0.00,,,0.00,VWS V14.01,2013-10-31 05:42:00,
2013-10-31 00:47:00,51.8,51.3,29.68,NNE,22,0.0,0.9,98,0.00,,,0.00,VWS V14.01,2013-10-31 05:47:00,
2013-10-31 00:52:00,51.8,51.3,29.68,ENE,68,0.0,1.3,98,0.00,,,0.00,VWS V14.01,2013-10-31 05:52:00,
2013-10-31 00:57:00,51.8,51.3,29.68,NNW,338,0.0,1.1,98,0.00,,,0.00,VWS V14.01,2013-10-31 05:57:00,
2013-10-31 01:02:00,51.8,51.3,29.68,NNW,338,0.0,1.1,98,0.00,,,0.00,VWS V14.01,2013-10-31 06:02:00,
2013-10-31 01:07:00,51.8,51.3,29.68,ENE,68,0.0,2.0,98,0.00,,,0.00,VWS V14.01,2013-10-31 06:07:00,
2013-10-31 01:12:00,51.6,51.1,29.68,ENE,68,0.0,1.3,98,0.00,,,0.00,VWS V14.01,2013-10-31 06:12:00,
2013-10-31 01:17:00,51.6,51.1,29.68,NE,45,0.0,1.6,98,0.00,,,0.00,VWS V14.01,2013-10-31 06:17:00,
2013-10-31 01:23:00,51.4,50.9,29.65,NE,45,0.9,1.1,98,0.00,,,0.00,VWS V14.01,2013-10-31 06:23:00,
2013-10-31 01:28:00,51.4,50.9,29.65,ENE,68,0.0,2.5,98,0.00,,,0.00,VWS V14.01,2013-10-31 06:28:00,
2013-10-31 01:33:00,51.4,50.9,29.65,NE,45,0.0,1.1,98,0.00,,,0.00,VWS V14.01,2013-10-31 06:33:00,
2013-10-31 01:38:00,51.3,50.7,29.62,South,180,0.0,0.0,98,0.00,,,0.00,VWS V14.01,2013-10-31 06:38:00,
2013-10-31 01:43:00,51.3,50.7,29.62,ENE,68,0.0,0.0,98,0.00,,,0.00,VWS V14.01,2013-10-31 06:43:00,
2013-10-31 01:48:00,51.3,50.7,29.62,South,180,1.3,1.3,98,0.00,,,0.00,VWS V14.01,2013-10-31 06:48:00,
2013-10-31 01:53:00,51.4,50.9,29.65,NNW,338,0.0,0.0,98,0.00,,,0.00,VWS V14.01,2013-10-31 06:53:00,
2013-10-31 01:58:00,51.6,51.1,29.65,ENE,68,0.0,1.6,98,0.00,,,0.00,VWS V14.01,2013-10-31 06:58:00,
2013-10-31 02:03:00,51.6,51.1,29.65,ENE,68,0.0,1.3,98,0.00,,,0.00,VWS V14.01,2013-10-31 07:03:00,
2013-10-31 02:08:00,51.6,51.1,29.65,ENE,68,0.0,0.0,98,0.00,,,0.00,VWS V14.01,2013-10-31 07:08:00,
2013-10-31 02:14:00,51.6,51.1,29.65,SE,135,2.0,2.0,98,0.00,,,0.00,VWS V14.01,2013-10-31 07:14:00,
2013-10-31 02:19:00,51.8,51.3,29.65,NE,45,0.0,0.0,98,0.00,,,0.00,VWS V14.01,2013-10-31 07:19:00,
2013-10-31 02:24:00,51.8,51.3,29.65,ENE,68,0.0,0.0,98,0.00,,,0.00,VWS V14.01,2013-10-31 07:24:00,
2013-10-31 02:29:00,51.8,51.3,29.65,ESE,112,0.0,1.3,98,0.00,,,0.00,VWS V14.01,2013-10-31 07:29:00,
2013-10-31 02:34:00,51.8,51.3,29.65,ESE,112,0.0,1.3,98,0.00,,,0.00,VWS V14.01,2013-10-31 07:34:00,
2013-10-31 02:39:00,51.8,51.3,29.65,ESE,112,0.0,0.0,98,0.00,,,0.00,VWS V14.01,2013-10-31 07:39:00,
2013-10-31 02:44:00,51.8,51.3,29.65,ENE,68,0.0,1.1,98,0.00,,,0.00,VWS V14.01,2013-10-31 07:44:00,
2013-10-31 02:49:00,51.6,51.1,29.65,ENE,68,0.0,0.0,98,0.00,,,0.00,VWS V14.01,2013-10-31 07:49:00,
2013-10-31 02:54:00,51.6,51.1,29.65,ENE,68,0.0,0.0,98,0.00,,,0.00,VWS V14.01,2013-10-31 07:54:00,
2013-10-31 02:59:00,51.6,51.1,29.65,ENE,68,0.0,0.0,98,0.00,,,0.00,VWS V14.01,2013-10-31 07:59:00,
2013-10-31 03:04:00,51.6,51.1,29.65,ENE,68,0.0,0.0,98,0.00,,,0.00,VWS V14.01,2013-10-31 08:04:00,
2013-10-31 03:09:00,51.6,51.1,29.62,SSW,202,0.0,0.0,98,0.00,,,0.00,VWS V14.01,2013-10-31 08:09:00,
2013-10-31 03:14:00,51.6,51.1,29.62,NE,45,0.0,0.0,98,0.00,,,0.00,VWS V14.01,2013-10-31 08:14:00,
2013-10-31 03:19:00,51.6,51.1,29.62,NE,45,0.0,0.0,98,0.00,,,0.00,VWS V14.01,2013-10-31 08:19:00,
2013-10-31 03:25:00,51.6,51.1,29.62,NE,45,0.0,0.0,98,0.00,,,0.00,VWS V14.01,2013-10-31 08:25:00,
2013-10-31 03:30:00,51.4,50.9,29.62,NE,45,0.0,0.0,98,0.00,,,0.00,VWS V14.01,2013-10-31 08:30:00,
2013-10-31 03:35:00,51.4,50.9,29.62,NE,45,0.0,0.0,98,0.00,,,0.00,VWS V14.01,2013-10-31 08:35:00,
2013-10-31 03:40:00,51.4,50.9,29.62,NE,45,0.0,0.0,98,0.00,,,0.00,VWS V14.01,2013-10-31 08:40:00,
2013-10-31 03:45:00,51.4,50.9,29.62,NE,45,0.0,0.0,98,0.00,,,0.00,VWS V14.01,2013-10-31 08:45:00,
2013-10-31 03:50:00,51.3,50.7,29.62,NE,45,0.0,0.0,98,0.00,,,0.00,VWS V14.01,2013-10-31 08:50:00,
2013-10-31 03:55:00,51.3,50.7,29.59,NE,45,0.0,0.0,98,0.00,,,0.00,VWS V14.01,2013-10-31 08:55:00,
2013-10-31 04:00:00,51.3,50.7,29.59,NE,45,0.0,0.0,98,0.00,,,0.00,VWS V14.01,2013-10-31 09:00:00,
2013-10-31 04:05:00,51.3,50.7,29.56,NE,45,0.0,0.0,98,0.00,,,0.00,VWS V14.01,2013-10-31 09:05:00,
2013-10-31 04:10:00,51.1,50.5,29.56,NE,45,0.0,0.0,98,0.00,,,0.00,VWS V14.01,2013-10-31 09:10:00,
2013-10-31 04:15:00,51.1,50.5,29.56,NE,45,0.0,0.0,98,0.00,,,0.00,VWS V14.01,2013-10-31 09:15:00,
2013-10-31 04:20:00,51.1,50.5,29.59,NE,45,0.0,0.0,98,0.00,,,0.00,VWS V14.01,2013-10-31 09:20:00,
2013-10-31 04:25:00,51.1,50.5,29.59,NE,45,0.0,0.0,98,0.00,,,0.00,VWS V14.01,2013-10-31 09:25:00,
2013-10-31 04:30:00,51.1,50.5,29.59,NE,45,0.0,0.0,98,0.00,,,0.00,VWS V14.01,2013-10-31 09:30:00,
2013-10-31 04:35:00,51.3,50.7,29.59,NE,45,0.0,0.0,98,0.00,,,0.00,VWS V14.01,2013-10-31 09:35:00,
2013-10-31 04:40:00,51.3,50.7,29.59,NE,45,0.0,0.0,98,0.00,,,0.00,VWS V14.01,2013-10-31 09:40:00,
2013-10-31 04:45:00,51.3,50.7,29.59,NE,45,0.0,0.0,98,0.00,,,0.00,VWS V14.01,2013-10-31 09:45:00,
2013-10-31 04:51:00,51.3,50.7,29.59,NE,45,0.0,0.0,98,0.00,,,0.00,VWS V14.01,2013-10-31 09:51:00,
2013-10-31 04:56:00,51.3,50.7,29.59,NE,45,0.0,0.0,98,0.00,,,0.00,VWS V14.01,2013-10-31 09:56:00,
2013-10-31 05:01:00,51.1,50.5,29.59,NE,45,0.0,0.0,98,0.00,,,0.00,VWS V14.01,2013-10-31 10:01:00,
2013-10-31 05:06:00,51.1,50.5,29.56,NE,45,0.0,0.0,98,0.00,,,0.00,VWS V14.01,2013-10-31 10:06:00,
2013-10-31 05:11:00,51.1,50.5,29.56,NE,45,0.0,0.0,98,0.00,,,0.00,VWS V14.01,2013-10-31 10:11:00,
2013-10-31 05:16:00,51.1,50.5,29.56,NE,45,0.0,0.0,98,0.00,,,0.00,VWS V14.01,2013-10-31 10:16:00,
2013-10-31 05:21:00,51.1,50.5,29.56,NE,45,0.0,0.0,98,0.00,,,0.00,VWS V14.01,2013-10-31 10:21:00,
2013-10-31 05:26:00,51.1,50.5,29.56,NE,45,0.0,0.0,98,0.00,,,0.00,VWS V14.01,2013-10-31 10:26:00,
2013-10-31 05:31:00,51.1,50.5,29.56,NE,45,0.0,0.0,98,0.00,,,0.00,VWS V14.01,2013-10-31 10:31:00,
2013-10-31 05:36:00,50.9,50.4,29.56,NE,45,0.0,0.0,98,0.00,,,0.00,VWS V14.01,2013-10-31 10:36:00,
2013-10-31 05:41:00,50.9,50.4,29.56,NE,45,0.0,0.0,98,0.00,,,0.00,VWS V14.01,2013-10-31 10:41:00,
2013-10-31 05:46:00,50.9,50.4,29.56,NE,45,0.0,0.0,98,0.00,,,0.00,VWS V14.01,2013-10-31 10:46:00,
2013-10-31 05:51:00,50.9,50.4,29.56,NE,45,0.0,0.0,98,0.00,,,0.00,VWS V14.01,2013-10-31 10:51:00,
2013-10-31 05:56:00,50.9,50.4,29.56,NE,45,0.0,0.0,98,0.00,,,0.00,VWS V14.01,2013-10-31 10:56:00,
2013-10-31 06:01:00,50.9,50.4,29.56,NE,45,0.0,0.0,98,0.00,,,0.00,VWS V14.01,2013-10-31 11:01:00,
2013-10-31 06:06:00,50.7,50.2,29.56,NE,45,0.0,0.0,98,0.00,,,0.00,VWS V14.01,2013-10-31 11:06:00,
2013-10-31 06:12:00,50.7,50.2,29.56,NE,45,0.0,0.0,98,0.00,,,0.00,VWS V14.01,2013-10-31 11:12:00,
2013-10-31 06:17:00,50.7,50.2,29.56,NE,45,0.0,0.0,98,0.00,,,0.00,VWS V14.01,2013-10-31 11:17:00,
2013-10-31 06:22:00,50.7,50.2,29.56,NE,45,0.0,0.0,98,0.00,,,0.00,VWS V14.01,2013-10-31 11:22:00,
2013-10-31 06:27:00,50.9,50.4,29.56,NE,45,0.0,0.0,98,0.00,,,0.00,VWS V14.01,2013-10-31 11:27:00,
2013-10-31 06:32:00,50.9,50.4,29.56,NE,45,0.0,0.0,98,0.00,,,0.00,VWS V14.01,2013-10-31 11:32:00,
2013-10-31 06:37:00,50.9,50.4,29.56,NE,45,0.0,0.0,98,0.00,,,0.00,VWS V14.01,2013-10-31 11:37:00,
2013-10-31 06:42:00,50.7,50.2,29.56,NE,45,0.0,0.0,98,0.00,,,0.00,VWS V14.01,2013-10-31 11:42:00,
2013-10-31 06:47:00,50.7,50.2,29.56,NE,45,0.0,0.0,98,0.00,,,0.00,VWS V14.01,2013-10-31 11:47:00,
2013-10-31 06:52:00,50.7,50.2,29.56,NE,45,0.0,0.0,98,0.00,,,0.00,VWS V14.01,2013-10-31 11:52:00,
2013-10-31 06:57:00,50.7,50.2,29.56,NE,45,0.0,0.0,98,0.00,,,0.00,VWS V14.01,2013-10-31 11:57:00,
2013-10-31 07:02:00,50.7,50.2,29.56,NE,45,0.0,0.0,98,0.00,,,0.00,VWS V14.01,2013-10-31 12:02:00,
2013-10-31 07:07:00,50.7,50.2,29.53,NE,45,0.0,0.0,98,0.00,,,0.00,VWS V14.01,2013-10-31 12:07:00,
2013-10-31 07:12:00,50.7,50.2,29.53,NE,45,0.0,0.0,98,0.00,,,0.00,VWS V14.01,2013-10-31 12:12:00,
2013-10-31 07:17:00,50.7,50.2,29.53,NE,45,0.0,0.0,98,0.00,,,0.00,VWS V14.01,2013-10-31 12:17:00,
2013-10-31 07:22:00,50.7,50.2,29.53,NE,45,0.0,0.0,98,0.00,,,0.00,VWS V14.01,2013-10-31 12:22:00,
2013-10-31 07:27:00,50.5,50.0,29.53,NE,45,0.0,0.0,98,0.00,,,0.00,VWS V14.01,2013-10-31 12:27:00,
2013-10-31 07:33:00,50.5,50.0,29.53,NE,45,0.0,0.0,98,0.00,,,0.00,VWS V14.01,2013-10-31 12:33:00,
2013-10-31 07:38:00,50.5,50.0,29.53,NE,45,0.0,0.0,98,0.00,,,0.00,VWS V14.01,2013-10-31 12:38:00,
2013-10-31 07:43:00,50.5,50.0,29.53,NE,45,0.0,0.0,98,0.00,,,0.00,VWS V14.01,2013-10-31 12:43:00,
2013-10-31 07:48:00,50.5,50.0,29.53,NE,45,0.0,0.0,98,0.00,,,0.00,VWS V14.01,2013-10-31 12:48:00,
2013-10-31 07:53:00,50.5,50.0,29.53,NE,45,0.0,0.0,98,0.00,,,0.00,VWS V14.01,2013-10-31 12:53:00,
2013-10-31 07:58:00,50.7,50.2,29.53,NE,45,0.0,0.0,98,0.00,,,0.00,VWS V14.01,2013-10-31 12:58:00,
2013-10-31 08:03:00,50.7,50.2,29.53,NE,45,0.0,0.0,98,0.00,,,0.00,VWS V14.01,2013-10-31 13:03:00,
2013-10-31 08:08:00,50.7,50.2,29.53,NE,45,0.0,0.0,98,0.00,,,0.00,VWS V14.01,2013-10-31 13:08:00,
2013-10-31 08:13:00,50.9,50.4,29.53,NE,45,0.0,0.0,98,0.00,,,0.00,VWS V14.01,2013-10-31 13:13:00,
2013-10-31 08:18:00,51.1,50.5,29.53,NE,45,0.0,0.0,98,0.04,,,0.04,VWS V14.01,2013-10-31 13:18:00,
2013-10-31 08:23:00,51.3,50.7,29.53,NE,45,0.0,0.0,98,0.04,,,0.04,VWS V14.01,2013-10-31 13:23:00,
2013-10-31 08:29:00,51.4,50.9,29.53,NE,45,0.0,0.0,98,0.04,,,0.04,VWS V14.01,2013-10-31 13:29:00,
2013-10-31 08:34:00,51.4,50.9,29.53,SSE,158,0.0,1.1,98,0.04,,,0.04,VWS V14.01,2013-10-31 13:34:00,
2013-10-31 08:39:00,51.4,50.9,29.50,SSE,158,0.0,0.0,98,0.04,,,0.04,VWS V14.01,2013-10-31 13:39:00,
2013-10-31 08:44:00,51.6,51.1,29.50,NNW,338,0.9,1.6,98,0.04,,,0.04,VWS V14.01,2013-10-31 13:44:00,
2013-10-31 08:49:00,51.6,51.1,29.50,NNW,338,0.0,1.6,98,0.04,,,0.04,VWS V14.01,2013-10-31 13:49:00,
2013-10-31 08:54:00,51.6,51.1,29.53,East,90,0.0,1.1,98,0.04,,,0.04,VWS V14.01,2013-10-31 13:54:00,
2013-10-31 08:59:00,51.6,51.1,29.53,ESE,112,0.0,1.1,98,0.04,,,0.04,VWS V14.01,2013-10-31 13:59:00,
2013-10-31 09:04:00,51.6,51.1,29.53,SE,135,0.9,1.1,98,0.04,,,0.04,VWS V14.01,2013-10-31 14:04:00,
2013-10-31 09:09:00,51.6,51.1,29.53,SW,225,0.0,2.7,98,0.04,,,0.04,VWS V14.01,2013-10-31 14:09:00,
2013-10-31 09:14:00,51.8,51.3,29.53,NNE,22,2.0,2.2,98,0.04,,,0.04,VWS V14.01,2013-10-31 14:14:00,
2013-10-31 09:19:00,51.6,51.1,29.53,NNE,22,1.1,2.0,98,0.04,,,0.04,VWS V14.01,2013-10-31 14:19:00,
2013-10-31 09:24:00,51.8,51.3,29.53,NNE,22,0.0,1.1,98,0.00,,,0.04,VWS V14.01,2013-10-31 14:24:00,
2013-10-31 09:29:00,51.8,51.3,29.53,NNE,22,0.0,1.1,98,0.00,,,0.04,VWS V14.01,2013-10-31 14:29:00,
2013-10-31 09:34:00,51.8,51.3,29.53,NNE,22,0.0,0.0,98,0.00,,,0.04,VWS V14.01,2013-10-31 14:34:00,
2013-10-31 09:39:00,51.8,51.3,29.53,NNE,22,0.0,0.0,98,0.00,,,0.04,VWS V14.01,2013-10-31 14:39:00,
2013-10-31 09:44:00,52.0,51.4,29.53,NNE,22,0.0,2.9,98,0.00,,,0.04,VWS V14.01,2013-10-31 14:44:00,
2013-10-31 09:50:00,52.0,51.4,29.53,SW,225,0.0,2.7,98,0.00,,,0.04,VWS V14.01,2013-10-31 14:50:00,
2013-10-31 09:55:00,51.8,51.3,29.53,NE,45,0.0,0.0,98,0.00,,,0.04,VWS V14.01,2013-10-31 14:55:00,
2013-10-31 10:00:00,51.8,51.3,29.53,WNW,292,2.2,2.2,98,0.00,,,0.04,VWS V14.01,2013-10-31 15:00:00,
2013-10-31 10:05:00,51.8,51.3,29.53,SE,135,1.1,1.1,98,0.00,,,0.04,VWS V14.01,2013-10-31 15:05:00,
2013-10-31 10:10:00,51.6,51.1,29.53,NNW,338,2.0,5.4,98,0.00,,,0.04,VWS V14.01,2013-10-31 15:10:00,
2013-10-31 10:15:00,51.6,51.1,29.53,NW,315,0.9,3.4,98,0.00,,,0.04,VWS V14.01,2013-10-31 15:15:00,
2013-10-31 10:20:00,51.6,51.1,29.50,NNW,338,2.0,2.5,98,0.00,,,0.04,VWS V14.01,2013-10-31 15:20:00,
2013-10-31 10:25:00,51.6,51.1,29.50,NNW,338,3.6,3.6,98,0.00,,,0.04,VWS V14.01,2013-10-31 15:25:00,
2013-10-31 10:30:00,51.4,50.9,29.50,South,180,0.0,3.6,98,0.00,,,0.04,VWS V14.01,2013-10-31 15:30:00,
2013-10-31 10:35:00,51.4,50.9,29.50,South,180,2.5,2.5,98,0.00,,,0.04,VWS V14.01,2013-10-31 15:35:00,
2013-10-31 10:40:00,51.3,50.7,29.50,South,180,0.0,2.2,98,0.00,,,0.04,VWS V14.01,2013-10-31 15:40:00,
2013-10-31 10:45:00,51.3,50.7,29.50,South,180,1.3,2.5,98,0.00,,,0.04,VWS V14.01,2013-10-31 15:45:00,
2013-10-31 10:50:00,51.1,50.5,29.47,NNE,22,1.3,1.6,98,0.00,,,0.04,VWS V14.01,2013-10-31 15:50:00,
2013-10-31 10:55:00,51.1,50.5,29.47,NW,315,0.9,2.5,98,0.00,,,0.04,VWS V14.01,2013-10-31 15:55:00,
2013-10-31 11:00:00,51.1,50.5,29.47,NW,315,2.5,2.7,98,0.00,,,0.04,VWS V14.01,2013-10-31 16:00:00,
2013-10-31 11:05:00,50.9,50.4,29.47,WNW,292,2.5,2.5,98,0.00,,,0.04,VWS V14.01,2013-10-31 16:05:00,
2013-10-31 11:11:00,50.7,50.2,29.47,NNW,338,3.1,3.1,98,0.00,,,0.04,VWS V14.01,2013-10-31 16:11:00,
2013-10-31 11:16:00,50.7,50.2,29.47,NW,315,0.9,5.6,98,0.00,,,0.04,VWS V14.01,2013-10-31 16:16:00,
2013-10-31 11:21:00,50.4,49.8,29.47,NW,315,1.1,3.6,98,0.00,,,0.04,VWS V14.01,2013-10-31 16:21:00,
2013-10-31 11:26:00,50.2,49.6,29.47,NW,315,6.3,6.3,98,0.00,,,0.04,VWS V14.01,2013-10-31 16:26:00,
2013-10-31 11:31:00,50.0,49.5,29.47,NW,315,1.6,4.9,98,0.00,,,0.04,VWS V14.01,2013-10-31 16:31:00,
2013-10-31 11:36:00,49.8,49.3,29.44,NNW,338,4.0,4.0,98,0.00,,,0.04,VWS V14.01,2013-10-31 16:36:00,
2013-10-31 11:41:00,49.8,49.3,29.44,NW,315,1.6,2.9,98,0.00,,,0.04,VWS V14.01,2013-10-31 16:41:00,
2013-10-31 11:46:00,49.6,49.1,29.44,WNW,292,3.4,5.8,98,0.00,,,0.04,VWS V14.01,2013-10-31 16:46:00,
2013-10-31 11:51:00,49.3,48.7,29.47,NE,45,0.0,5.4,98,0.00,,,0.04,VWS V14.01,2013-10-31 16:51:00,
2013-10-31 11:56:00,49.1,48.6,29.47,SSW,202,6.3,6.3,98,0.00,,,0.04,VWS V14.01,2013-10-31 16:56:00,
2013-10-31 12:01:00,48.9,48.4,29.47,WSW,248,2.9,5.8,98,0.00,,,0.04,VWS V14.01,2013-10-31 17:01:00,
2013-10-31 12:06:00,48.7,48.2,29.44,WSW,248,1.1,2.9,98,0.00,,,0.04,VWS V14.01,2013-10-31 17:06:00,
2013-10-31 12:11:00,48.7,48.2,29.44,WSW,248,2.9,2.9,98,0.00,,,0.04,VWS V14.01,2013-10-31 17:11:00,
2013-10-31 12:17:00,48.6,48.0,29.44,NW,315,1.6,3.4,98,0.00,,,0.04,VWS V14.01,2013-10-31 17:17:00,
2013-10-31 12:22:00,48.2,47.7,29.47,WSW,248,4.0,4.0,98,0.00,,,0.04,VWS V14.01,2013-10-31 17:22:00,
2013-10-31 12:27:00,48.0,47.5,29.47,West,270,3.6,3.8,98,0.00,,,0.04,VWS V14.01,2013-10-31 17:27:00,
2013-10-31 12:32:00,47.8,47.3,29.47,WSW,248,1.3,4.0,98,0.00,,,0.04,VWS V14.01,2013-10-31 17:32:00,
2013-10-31 12:37:00,47.7,47.1,29.47,WSW,248,2.5,5.6,98,0.00,,,0.04,VWS V14.01,2013-10-31 17:37:00,
2013-10-31 12:42:00,47.5,47.0,29.47,WNW,292,2.5,4.0,98,0.00,,,0.04,VWS V14.01,2013-10-31 17:42:00,
2013-10-31 12:47:00,47.5,47.0,29.47,SSW,202,0.0,3.8,98,0.00,,,0.04,VWS V14.01,2013-10-31 17:47:00,
2013-10-31 12:52:00,47.5,47.0,29.47,SW,225,1.1,3.6,98,0.00,,,0.04,VWS V14.01,2013-10-31 17:52:00,
2013-10-31 12:57:00,47.3,46.8,29.47,NW,315,4.7,4.7,98,0.00,,,0.04,VWS V14.01,2013-10-31 17:57:00,
2013-10-31 13:02:00,47.1,46.6,29.47,SE,135,3.6,4.3,98,0.00,,,0.04,VWS V14.01,2013-10-31 18:02:00,
2013-10-31 13:07:00,47.1,46.6,29.47,West,270,4.0,4.0,98,0.00,,,0.04,VWS V14.01,2013-10-31 18:07:00,
2013-10-31 13:12:00,46.9,46.4,29.47,South,180,2.7,3.4,98,0.00,,,0.04,VWS V14.01,2013-10-31 18:12:00,
2013-10-31 13:17:00,46.8,46.2,29.47,ENE,68,4.3,5.8,98,0.00,,,0.04,VWS V14.01,2013-10-31 18:17:00,
2013-10-31 13:22:00,46.6,46.0,29.47,WSW,248,2.0,3.4,98,0.00,,,0.04,VWS V14.01,2013-10-31 18:22:00,
2013-10-31 13:27:00,46.4,45.9,29.47,NNE,22,2.9,5.4,98,0.00,,,0.04,VWS V14.01,2013-10-31 18:27:00,
2013-10-31 13:32:00,46.0,45.5,29.47,WNW,292,0.9,5.6,98,0.00,,,0.04,VWS V14.01,2013-10-31 18:32:00,
2013-10-31 13:37:00,45.9,45.3,29.44,SW,225,2.5,5.6,98,0.00,,,0.04,VWS V14.01,2013-10-31 18:37:00,
2013-10-31 13:43:00,45.5,45.0,29.44,WSW,248,2.5,2.9,98,0.00,,,0.04,VWS V14.01,2013-10-31 18:43:00,
2013-10-31 13:48:00,45.5,45.0,29.44,NNE,22,1.3,4.9,98,0.00,,,0.04,VWS V14.01,2013-10-31 18:48:00,
2013-10-31 13:53:00,45.3,44.8,29.44,SSW,202,3.1,3.8,98,0.00,,,0.04,VWS V14.01,2013-10-31 18:53:00,
2013-10-31 13:58:00,45.3,44.8,29.44,WSW,248,2.7,4.3,98,0.00,,,0.04,VWS V14.01,2013-10-31 18:58:00,
2013-10-31 14:03:00,45.1,44.6,29.44,NNW,338,1.3,7.2,98,0.00,,,0.04,VWS V14.01,2013-10-31 19:03:00,
2013-10-31 14:08:00,45.1,44.6,29.44,South,180,4.7,6.9,98,0.00,,,0.04,VWS V14.01,2013-10-31 19:08:00,
2013-10-31 14:13:00,45.0,44.4,29.44,WSW,248,2.9,6.0,98,0.00,,,0.04,VWS V14.01,2013-10-31 19:13:00,
2013-10-31 14:18:00,44.8,44.2,29.44,SSW,202,3.1,3.1,98,0.00,,,0.04,VWS V14.01,2013-10-31 19:18:00,
2013-10-31 14:23:00,44.8,44.2,29.44,South,180,4.3,4.3,98,0.00,,,0.04,VWS V14.01,2013-10-31 19:23:00,
2013-10-31 14:28:00,44.6,44.1,29.44,WSW,248,1.3,4.9,98,0.00,,,0.04,VWS V14.01,2013-10-31 19:28:00,
2013-10-31 14:33:00,44.6,44.1,29.44,North,0,1.1,3.8,98,0.00,,,0.04,VWS V14.01,2013-10-31 19:33:00,
2013-10-31 14:38:00,44.6,44.1,29.41,WNW,292,3.4,4.9,98,0.00,,,0.04,VWS V14.01,2013-10-31 19:38:00,
2013-10-31 14:43:00,44.6,44.1,29.41,NW,315,0.0,3.6,98,0.00,,,0.04,VWS V14.01,2013-10-31 19:43:00,
2013-10-31 14:48:00,44.4,43.9,29.41,SSW,202,1.1,3.4,98,0.00,,,0.04,VWS V14.01,2013-10-31 19:48:00,
2013-10-31 14:53:00,44.4,43.9,29.41,North,0,2.0,3.6,98,0.00,,,0.04,VWS V14.01,2013-10-31 19:53:00,
2013-10-31 14:54:00,44.4,43.9,29.41,North,0,0.0,3.6,98,0.00,,,0.04,VWS V14.01,2013-10-31 19:54:00,
2013-10-31 14:59:00,44.4,43.9,29.41,SSW,202,0.0,2.7,98,0.00,,,0.04,VWS V14.01,2013-10-31 19:59:00,
2013-10-31 15:04:00,44.2,43.7,29.41,NW,315,2.5,4.7,98,0.00,,,0.04,VWS V14.01,2013-10-31 20:04:00,
2013-10-31 15:09:00,44.1,43.5,29.41,SSW,202,4.7,5.6,98,0.00,,,0.04,VWS V14.01,2013-10-31 20:09:00,
2013-10-31 15:14:00,44.1,43.5,29.41,WSW,248,3.8,3.8,98,0.00,,,0.04,VWS V14.01,2013-10-31 20:14:00,
2013-10-31 15:19:00,44.1,43.5,29.41,SE,135,1.6,5.4,98,0.00,,,0.04,VWS V14.01,2013-10-31 20:19:00,
2013-10-31 15:24:00,44.1,43.5,29.41,SSE,158,4.0,4.7,98,0.00,,,0.04,VWS V14.01,2013-10-31 20:24:00,
2013-10-31 15:29:00,43.9,43.3,29.41,SSW,202,1.6,2.5,98,0.00,,,0.04,VWS V14.01,2013-10-31 20:29:00,
2013-10-31 15:34:00,43.7,43.2,29.41,ESE,112,0.0,4.3,98,0.00,,,0.04,VWS V14.01,2013-10-31 20:34:00,
2013-10-31 15:39:00,43.7,43.2,29.41,WNW,292,1.1,3.8,98,0.00,,,0.04,VWS V14.01,2013-10-31 20:39:00,
2013-10-31 15:44:00,43.7,43.2,29.41,ESE,112,1.3,4.0,98,0.00,,,0.04,VWS V14.01,2013-10-31 20:44:00,
2013-10-31 15:50:00,43.5,43.0,29.41,NNE,22,2.5,3.6,98,0.00,,,0.04,VWS V14.01,2013-10-31 20:50:00,
2013-10-31 15:55:00,43.5,43.0,29.41,SSE,158,1.1,4.0,98,0.00,,,0.04,VWS V14.01,2013-10-31 20:55:00,
2013-10-31 16:00:00,43.5,43.0,29.41,SSE,158,2.5,2.5,98,0.00,,,0.04,VWS V14.01,2013-10-31 21:00:00,
2013-10-31 16:05:00,43.3,42.8,29.41,SSW,202,3.4,3.4,98,0.00,,,0.04,VWS V14.01,2013-10-31 21:05:00,
2013-10-31 16:10:00,43.3,42.8,29.41,SSW,202,3.1,4.3,98,0.00,,,0.04,VWS V14.01,2013-10-31 21:10:00,
2013-10-31 16:15:00,43.2,42.6,29.41,WSW,248,1.1,1.1,98,0.00,,,0.04,VWS V14.01,2013-10-31 21:15:00,
2013-10-31 16:20:00,43.2,42.6,29.41,WSW,248,2.0,2.9,98,0.00,,,0.04,VWS V14.01,2013-10-31 21:20:00,
2013-10-31 16:25:00,43.0,42.5,29.41,WSW,248,1.6,3.8,98,0.00,,,0.04,VWS V14.01,2013-10-31 21:25:00,
2013-10-31 16:30:00,43.0,42.5,29.41,South,180,3.4,5.4,98,0.00,,,0.04,VWS V14.01,2013-10-31 21:30:00,
2013-10-31 16:35:00,43.0,42.5,29.41,SE,135,4.3,4.3,98,0.00,,,0.04,VWS V14.01,2013-10-31 21:35:00,
2013-10-31 16:40:00,42.8,42.3,29.41,West,270,2.9,2.9,98,0.00,,,0.04,VWS V14.01,2013-10-31 21:40:00,
2013-10-31 16:45:00,42.8,42.3,29.41,WNW,292,4.3,4.3,98,0.00,,,0.04,VWS V14.01,2013-10-31 21:45:00,
2013-10-31 16:50:00,42.6,42.1,29.41,NW,315,2.9,6.0,98,0.00,,,0.04,VWS V14.01,2013-10-31 21:50:00,
2013-10-31 16:55:00,42.6,42.1,29.41,WNW,292,2.7,5.4,98,0.00,,,0.04,VWS V14.01,2013-10-31 21:55:00,
2013-10-31 17:00:00,42.6,42.1,29.41,NE,45,0.0,2.2,98,0.00,,,0.04,VWS V14.01,2013-10-31 22:00:00,
2013-10-31 17:06:00,42.4,41.9,29.44,SSE,158,2.0,2.2,98,0.00,,,0.04,VWS V14.01,2013-10-31 22:06:00,
2013-10-31 17:11:00,42.4,41.9,29.44,South,180,1.3,2.9,98,0.00,,,0.04,VWS V14.01,2013-10-31 22:11:00,
2013-10-31 17:16:00,42.4,41.9,29.44,WNW,292,3.1,3.6,98,0.00,,,0.04,VWS V14.01,2013-10-31 22:16:00,
2013-10-31 17:21:00,42.3,41.7,29.41,NNW,338,1.6,2.7,98,0.00,,,0.04,VWS V14.01,2013-10-31 22:21:00,
2013-10-31 17:26:00,42.3,41.7,29.41,South,180,6.5,6.5,98,0.00,,,0.04,VWS V14.01,2013-10-31 22:26:00,
2013-10-31 17:31:00,42.3,41.7,29.41,WNW,292,1.1,6.3,98,0.00,,,0.04,VWS V14.01,2013-10-31 22:31:00,
2013-10-31 17:36:00,42.3,41.7,29.41,NNE,22,6.0,6.0,98,0.00,,,0.04,VWS V14.01,2013-10-31 22:36:00,
2013-10-31 17:41:00,42.1,41.6,29.44,SSE,158,2.9,5.4,98,0.00,,,0.04,VWS V14.01,2013-10-31 22:41:00,
2013-10-31 17:46:00,42.1,41.6,29.44,SW,225,2.2,3.4,98,0.00,,,0.04,VWS V14.01,2013-10-31 22:46:00,
2013-10-31 17:51:00,42.1,41.6,29.41,NNW,338,0.9,2.9,98,0.00,,,0.04,VWS V14.01,2013-10-31 22:51:00,
2013-10-31 17:56:00,42.1,41.6,29.41,NNW,338,2.0,4.0,98,0.00,,,0.04,VWS V14.01,2013-10-31 22:56:00,
2013-10-31 18:02:00,41.9,41.4,29.41,WSW,248,0.9,2.5,98,0.00,,,0.04,VWS V14.01,2013-10-31 23:02:00,
2013-10-31 18:07:00,41.9,41.4,29.41,West,270,0.0,2.9,98,0.00,,,0.04,VWS V14.01,2013-10-31 23:07:00,
2013-10-31 18:12:00,41.9,41.4,29.41,NW,315,2.7,4.9,98,0.00,,,0.04,VWS V14.01,2013-10-31 23:12:00,
2013-10-31 18:17:00,41.9,41.4,29.41,WNW,292,5.4,5.8,98,0.00,,,0.04,VWS V14.01,2013-10-31 23:17:00,
2013-10-31 18:22:00,41.9,41.4,29.41,NW,315,0.0,3.4,98,0.00,,,0.04,VWS V14.01,2013-10-31 23:22:00,
2013-10-31 18:27:00,41.7,41.2,29.41,WSW,248,4.3,6.0,98,0.00,,,0.04,VWS V14.01,2013-10-31 23:27:00,
2013-10-31 18:32:00,41.7,41.2,29.41,SSE,158,0.9,3.6,98,0.00,,,0.04,VWS V14.01,2013-10-31 23:32:00,
2013-10-31 18:37:00,41.7,41.2,29.41,ENE,68,0.9,2.9,98,0.00,,,0.04,VWS V14.01,2013-10-31 23:37:00,
2013-10-31 18:42:00,41.7,41.2,29.41,South,180,2.0,3.1,98,0.00,,,0.04,VWS V14.01,2013-10-31 23:42:00,
2013-10-31 18:47:00,41.5,41.0,29.41,South,180,2.9,4.7,98,0.00,,,0.04,VWS V14.01,2013-10-31 23:47:00,
2013-10-31 18:52:00,41.5,41.0,29.41,SW,225,2.7,4.3,98,0.00,,,0.04,VWS V14.01,2013-10-31 23:52:00,
2013-10-31 18:58:00,41.5,41.0,29.41,NNW,338,2.0,3.6,98,0.00,,,0.04,VWS V14.01,2013-10-31 23:58:00,
2013-10-31 19:03:00,41.5,41.0,29.41,ESE,112,1.1,3.1,98,0.00,,,0.04,VWS V14.01,2013-11-01 00:03:00,
2013-10-31 19:08:00,41.5,41.0,29.41,SW,225,1.6,3.1,98,0.00,,,0.04,VWS V14.01,2013-11-01 00:08:00,
2013-10-31 19:13:00,41.5,41.0,29.41,East,90,3.6,4.0,98,0.00,,,0.04,VWS V14.01,2013-11-01 00:13:00,
2013-10-31 19:18:00,41.5,41.0,29.41,South,180,0.9,4.9,98,0.00,,,0.04,VWS V14.01,2013-11-01 00:18:00,
2013-10-31 19:23:00,41.5,41.0,29.44,NW,315,2.9,3.8,98,0.00,,,0.04,VWS V14.01,2013-11-01 00:23:00,
2013-10-31 19:28:00,41.4,40.8,29.44,NNW,338,1.3,9.8,98,0.00,,,0.04,VWS V14.01,2013-11-01 00:28:00,
2013-10-31 19:33:00,41.4,40.8,29.44,SE,135,0.0,3.8,98,0.00,,,0.04,VWS V14.01,2013-11-01 00:33:00,
2013-10-31 19:38:00,41.4,40.8,29.41,NNW,338,2.5,4.9,98,0.00,,,0.04,VWS V14.01,2013-11-01 00:38:00,
2013-10-31 19:43:00,41.4,40.8,29.41,NE,45,2.2,3.6,98,0.00,,,0.04,VWS V14.01,2013-11-01 00:43:00,
2013-10-31 19:48:00,41.4,40.8,29.41,NNW,338,2.2,3.8,98,0.00,,,0.04,VWS V14.01,2013-11-01 00:48:00,
2013-10-31 19:53:00,41.2,40.7,29.41,NNW,338,2.9,5.4,98,0.00,,,0.04,VWS V14.01,2013-11-01 00:53:00,
2013-10-31 19:59:00,41.2,40.7,29.41,SSW,202,2.5,5.8,98,0.00,,,0.04,VWS V14.01,2013-11-01 00:59:00,
2013-10-31 20:04:00,41.2,40.7,29.41,South,180,2.9,4.3,98,0.00,,,0.04,VWS V14.01,2013-11-01 01:04:00,
2013-10-31 20:09:00,41.2,40.7,29.41,SW,225,3.4,6.5,98,0.00,,,0.04,VWS V14.01,2013-11-01 01:09:00,
2013-10-31 20:14:00,41.2,40.7,29.41,NNW,338,1.3,4.3,98,0.00,,,0.04,VWS V14.01,2013-11-01 01:14:00,
2013-10-31 20:19:00,41.2,40.7,29.41,SW,225,2.7,3.1,98,0.00,,,0.04,VWS V14.01,2013-11-01 01:19:00,
2013-10-31 20:24:00,41.2,40.7,29.41,SSW,202,1.3,2.9,98,0.00,,,0.04,VWS V14.01,2013-11-01 01:24:00,
2013-10-31 20:29:00,41.0,40.5,29.41,SW,225,1.6,6.7,98,0.00,,,0.04,VWS V14.01,2013-11-01 01:29:00,
2013-10-31 20:34:00,41.0,40.5,29.41,NNW,338,2.5,3.4,98,0.00,,,0.04,VWS V14.01,2013-11-01 01:34:00,
2013-10-31 20:39:00,41.0,40.5,29.41,NNW,338,1.6,4.0,98,0.00,,,0.04,VWS V14.01,2013-11-01 01:39:00,
2013-10-31 20:44:00,41.0,40.5,29.41,South,180,0.0,3.8,98,0.00,,,0.04,VWS V14.01,2013-11-01 01:44:00,
2013-10-31 20:49:00,41.0,40.5,29.41,SW,225,1.1,5.4,98,0.00,,,0.04,VWS V14.01,2013-11-01 01:49:00,
2013-10-31 20:54:00,41.0,40.5,29.41,SSW,202,3.6,5.8,98,0.00,,,0.04,VWS V14.01,2013-11-01 01:54:00,
2013-10-31 20:59:00,40.8,40.3,29.41,North,0,1.3,9.8,98,0.00,,,0.04,VWS V14.01,2013-11-01 01:59:00,
2013-10-31 21:04:00,40.8,40.3,29.41,West,270,2.0,5.8,98,0.00,,,0.04,VWS V14.01,2013-11-01 02:04:00,
2013-10-31 21:10:00,40.6,40.1,29.41,SSE,158,3.8,8.5,98,0.00,,,0.04,VWS V14.01,2013-11-01 02:10:00,
2013-10-31 21:15:00,40.6,40.1,29.41,NNW,338,0.0,3.8,98,0.00,,,0.04,VWS V14.01,2013-11-01 02:15:00,
2013-10-31 21:20:00,40.6,40.1,29.41,NNE,22,3.1,3.1,98,0.00,,,0.04,VWS V14.01,2013-11-01 02:20:00,
2013-10-31 21:25:00,40.5,39.9,29.41,WNW,292,2.5,3.6,98,0.00,,,0.04,VWS V14.01,2013-11-01 02:25:00,
2013-10-31 21:30:00,40.5,39.9,29.41,South,180,2.5,2.7,98,0.00,,,0.04,VWS V14.01,2013-11-01 02:30:00,
2013-10-31 21:35:00,40.5,39.9,29.41,SSW,202,3.6,4.7,98,0.00,,,0.04,VWS V14.01,2013-11-01 02:35:00,
2013-10-31 21:40:00,40.3,39.8,29.41,ENE,68,1.6,4.3,98,0.00,,,0.04,VWS V14.01,2013-11-01 02:40:00,
2013-10-31 21:45:00,40.3,39.8,29.41,SSE,158,2.0,5.4,98,0.00,,,0.04,VWS V14.01,2013-11-01 02:45:00,
2013-10-31 21:50:00,40.3,39.8,29.41,SSW,202,3.1,4.9,98,0.00,,,0.04,VWS V14.01,2013-11-01 02:50:00,
2013-10-31 21:55:00,40.3,39.8,29.41,WSW,248,2.9,3.1,98,0.00,,,0.04,VWS V14.01,2013-11-01 02:55:00,
2013-10-31 22:01:00,40.1,39.6,29.41,NNW,338,4.0,5.8,98,0.00,,,0.04,VWS V14.01,2013-11-01 03:01:00,
2013-10-31 22:06:00,40.1,39.6,29.41,SSW,202,2.7,6.0,98,0.00,,,0.04,VWS V14.01,2013-11-01 03:06:00,
2013-10-31 22:11:00,40.1,39.6,29.41,West,270,2.2,3.6,98,0.00,,,0.04,VWS V14.01,2013-11-01 03:11:00,
2013-10-31 22:16:00,40.1,39.6,29.41,South,180,2.7,3.8,98,0.00,,,0.04,VWS V14.01,2013-11-01 03:16:00,
2013-10-31 22:21:00,40.1,39.6,29.41,WNW,292,1.3,1.6,98,0.00,,,0.04,VWS V14.01,2013-11-01 03:21:00,
2013-10-31 22:26:00,40.1,39.6,29.41,SE,135,0.0,3.6,98,0.00,,,0.04,VWS V14.01,2013-11-01 03:26:00,
2013-10-31 22:31:00,39.9,39.4,29.41,SW,225,5.8,5.8,98,0.00,,,0.04,VWS V14.01,2013-11-01 03:31:00,
2013-10-31 22:36:00,39.9,39.4,29.41,South,180,2.0,3.6,98,0.00,,,0.04,VWS V14.01,2013-11-01 03:36:00,
2013-10-31 22:41:00,40.1,39.6,29.41,SW,225,2.7,2.7,98,0.00,,,0.04,VWS V14.01,2013-11-01 03:41:00,
2013-10-31 22:46:00,39.9,39.4,29.41,SSW,202,3.1,5.8,98,0.00,,,0.04,VWS V14.01,2013-11-01 03:46:00,
2013-10-31 22:52:00,39.9,39.4,29.41,NE,45,3.4,4.9,98,0.00,,,0.04,VWS V14.01,2013-11-01 03:52:00,
2013-10-31 22:57:00,39.9,39.4,29.41,ENE,68,0.9,3.6,98,0.00,,,0.04,VWS V14.01,2013-11-01 03:57:00,
2013-10-31 23:01:00,39.9,39.4,29.41,SW,225,3.1,3.1,98,0.00,,,0.04,VWS V14.01,2013-11-01 04:01:00,
2013-10-31 23:02:00,39.9,39.4,29.41,SSW,202,1.6,5.4,98,0.00,,,0.04,VWS V14.01,2013-11-01 04:02:00,
2013-10-31 23:03:00,39.9,39.4,29.41,NNW,338,2.2,5.4,98,0.00,,,0.04,VWS V14.01,2013-11-01 04:03:00,
2013-10-31 23:04:00,39.9,39.4,29.41,NW,315,1.3,5.4,98,0.00,,,0.04,VWS V14.01,2013-11-01 04:04:00,
2013-10-31 23:09:00,39.9,39.4,29.41,WNW,292,2.7,5.4,98,0.00,,,0.04,VWS V14.01,2013-11-01 04:09:00,
2013-10-31 23:14:00,39.7,39.2,29.41,SW,225,5.8,5.8,98,0.00,,,0.04,VWS V14.01,2013-11-01 04:14:00,
2013-10-31 23:19:00,39.7,39.2,29.41,WSW,248,1.3,6.3,98,0.00,,,0.04,VWS V14.01,2013-11-01 04:19:00,
2013-10-31 23:24:00,39.7,39.2,29.41,NNW,338,3.1,3.1,98,0.00,,,0.04,VWS V14.01,2013-11-01 04:24:00,
2013-10-31 23:29:00,39.7,39.2,29.41,ENE,68,0.0,6.3,98,0.00,,,0.04,VWS V14.01,2013-11-01 04:29:00,
2013-10-31 23:34:00,39.6,39.0,29.41,SW,225,4.5,4.5,98,0.00,,,0.04,VWS V14.01,2013-11-01 04:34:00,
2013-10-31 23:40:00,39.6,39.0,29.41,SE,135,2.2,2.2,98,0.00,,,0.04,VWS V14.01,2013-11-01 04:40:00,
2013-10-31 23:45:00,39.6,39.0,29.41,SSW,202,3.8,4.3,98,0.00,,,0.04,VWS V14.01,2013-11-01 04:45:00,
2013-10-31 23:50:00,39.6,39.0,29.41,ESE,112,1.6,1.6,98,0.00,,,0.04,VWS V14.01,2013-11-01 04:50:00,
2013-10-31 23:55:00,39.4,38.9,29.41,WNW,292,2.9,3.6,98,0.00,,,0.04,VWS V14.01,2013-11-01 04:55:00,